FIN1577 EFHK-LFPG

Flight info

Callsign FIN1577
Flight time N/A
Altitude 34000
Route NUNTO Y369 REKDO DCT KOSKA DCT VEPIP DCT ALASA DCT PARYD DCT BUB DCT NILEM/N0454F350 DCT MOPIL
Aircraft B738/M-SDE2E3FGHIRWXY/LB1

Departure

Time 2026-04-26 07:10
Airport Helsinki Vantaa Airport (EFHK)

Arrival

Time N/A
Airport Charles de Gaulle International Airport (LFPG)
Time Latitude Longitude Altitude Speed Heading
2026-04-26 06:17 60.31865 24.97019 161 ft 0 kts 244°
2026-04-26 06:57 60.31865 24.97021 161 ft 1 kts 244°
2026-04-26 06:57 60.31872 24.97048 161 ft 3 kts 236°
2026-04-26 06:57 60.31885 24.97079 164 ft 3 kts 219°
2026-04-26 06:57 60.31901 24.97099 163 ft 3 kts 189°
2026-04-26 06:58 60.31915 24.97099 161 ft 1 kts 154°
2026-04-26 06:58 60.31917 24.97097 161 ft 1 kts 153°
2026-04-26 07:03 60.31914 24.97100 161 ft 1 kts 153°
2026-04-26 07:04 60.31901 24.97114 161 ft 3 kts 153°
2026-04-26 07:04 60.31859 24.97159 161 ft 11 kts 152°
2026-04-26 07:04 60.31781 24.97240 161 ft 13 kts 153°
2026-04-26 07:04 60.31704 24.97319 160 ft 12 kts 153°
2026-04-26 07:05 60.31633 24.97409 160 ft 12 kts 122°
2026-04-26 07:05 60.31609 24.97560 160 ft 12 kts 141°
2026-04-26 07:05 60.31535 24.97641 159 ft 14 kts 151°
2026-04-26 07:05 60.31432 24.97748 159 ft 20 kts 153°
2026-04-26 07:06 60.31299 24.97884 158 ft 22 kts 153°
2026-04-26 07:06 60.31164 24.98025 158 ft 22 kts 151°
2026-04-26 07:06 60.31035 24.98156 157 ft 21 kts 154°
2026-04-26 07:06 60.30901 24.98273 157 ft 20 kts 157°
2026-04-26 07:07 60.30800 24.98359 156 ft 11 kts 156°
2026-04-26 07:07 60.30731 24.98420 156 ft 11 kts 156°
2026-04-26 07:07 60.30672 24.98506 156 ft 11 kts 123°
2026-04-26 07:07 60.30661 24.98598 156 ft 0 kts 84°
2026-04-26 07:08 60.30661 24.98605 156 ft 3 kts 84°
2026-04-26 07:08 60.30682 24.98703 156 ft 11 kts 60°
2026-04-26 07:08 60.30746 24.98777 158 ft 11 kts 349°
2026-04-26 07:08 60.30795 24.98734 158 ft 0 kts 333°
2026-04-26 07:09 60.30914 24.98614 157 ft 52 kts 334°
2026-04-26 07:09 60.31434 24.98070 159 ft 114 kts 331°
2026-04-26 07:10 60.33956 24.95122 2232 ft 141 kts 320°
2026-04-26 07:11 60.35186 24.91030 2801 ft 202 kts 298°
2026-04-26 07:11 60.35456 24.87979 3048 ft 242 kts 278°
2026-04-26 07:11 60.35083 24.84499 3751 ft 268 kts 254°
2026-04-26 07:11 60.34131 24.81152 4552 ft 280 kts 245°
2026-04-26 07:12 60.33073 24.77821 5365 ft 283 kts 246°
2026-04-26 07:12 60.32046 24.74406 6169 ft 286 kts 248°
2026-04-26 07:12 60.31049 24.70924 6973 ft 287 kts 249°
2026-04-26 07:12 60.30065 24.67418 7794 ft 288 kts 248°
2026-04-26 07:13 60.29082 24.63871 8568 ft 291 kts 248°
2026-04-26 07:13 60.28096 24.60273 9336 ft 294 kts 248°
2026-04-26 07:13 60.27116 24.56691 10016 ft 299 kts 247°
2026-04-26 07:13 60.26079 24.52884 10245 ft 321 kts 247°
2026-04-26 07:14 60.24967 24.48806 10441 ft 343 kts 246°
2026-04-26 07:14 60.23782 24.44485 10618 ft 363 kts 246°
2026-04-26 07:14 60.22529 24.39939 10964 ft 376 kts 245°
2026-04-26 07:14 60.21244 24.35308 11626 ft 380 kts 245°
2026-04-26 07:15 60.19952 24.30668 12391 ft 381 kts 245°
2026-04-26 07:15 60.18649 24.25990 13067 ft 385 kts 244°
2026-04-26 07:15 60.17336 24.21280 13721 ft 387 kts 244°
2026-04-26 07:15 60.16012 24.16544 14317 ft 391 kts 244°
2026-04-26 07:16 60.14679 24.11772 14998 ft 391 kts 243°
2026-04-26 07:16 60.13361 24.07057 15595 ft 394 kts 243°
2026-04-26 07:16 60.12012 24.02240 16186 ft 397 kts 243°
2026-04-26 07:16 60.10657 23.97414 16828 ft 398 kts 242°
2026-04-26 07:17 60.09291 23.92561 17423 ft 401 kts 242°
2026-04-26 07:17 60.07920 23.87677 17988 ft 404 kts 242°
2026-04-26 07:17 60.06586 23.82702 18456 ft 407 kts 244°
2026-04-26 07:17 60.05270 23.77658 18895 ft 411 kts 244°
2026-04-26 07:18 60.03946 23.72555 19333 ft 415 kts 245°
2026-04-26 07:18 60.02607 23.67409 19809 ft 418 kts 245°
2026-04-26 07:18 60.01251 23.62224 20196 ft 422 kts 245°
2026-04-26 07:18 59.99878 23.57010 20606 ft 426 kts 245°
2026-04-26 07:19 59.98506 23.51824 21044 ft 429 kts 245°
2026-04-26 07:19 59.97106 23.46548 21475 ft 432 kts 245°
2026-04-26 07:19 59.95690 23.41235 21865 ft 435 kts 245°
2026-04-26 07:19 59.94263 23.35891 22268 ft 438 kts 245°
2026-04-26 07:20 59.92821 23.30503 22655 ft 441 kts 245°
2026-04-26 07:20 59.91367 23.25080 23046 ft 444 kts 245°
2026-04-26 07:20 59.89903 23.19635 23410 ft 447 kts 245°
2026-04-26 07:20 59.88424 23.14146 23721 ft 449 kts 245°
2026-04-26 07:21 59.86941 23.08658 24034 ft 452 kts 245°
2026-04-26 07:21 59.85444 23.03126 24322 ft 455 kts 245°
2026-04-26 07:21 59.83938 22.97580 24589 ft 457 kts 245°
2026-04-26 07:21 59.82422 22.92009 24864 ft 460 kts 245°
2026-04-26 07:22 59.80892 22.86395 25121 ft 463 kts 246°
2026-04-26 07:22 59.79372 22.80830 25378 ft 465 kts 246°
2026-04-26 07:22 59.77822 22.75177 25640 ft 468 kts 246°
2026-04-26 07:22 59.76261 22.69497 25890 ft 470 kts 246°
2026-04-26 07:23 59.74689 22.63793 26143 ft 473 kts 246°
2026-04-26 07:23 59.73103 22.58050 26364 ft 475 kts 246°
2026-04-26 07:23 59.71508 22.52284 26606 ft 478 kts 246°
2026-04-26 07:23 59.69907 22.46514 26830 ft 480 kts 246°
2026-04-26 07:24 59.68293 22.40709 27073 ft 482 kts 246°
2026-04-26 07:24 59.66676 22.34909 27371 ft 482 kts 247°
2026-04-26 07:24 59.65051 22.29098 27728 ft 481 kts 247°
2026-04-26 07:24 59.63428 22.23309 28058 ft 481 kts 247°
2026-04-26 07:25 59.61800 22.17516 28350 ft 482 kts 247°
2026-04-26 07:25 59.60166 22.11712 28675 ft 482 kts 247°
2026-04-26 07:25 59.58534 22.05930 28997 ft 482 kts 248°
2026-04-26 07:25 59.56901 22.00162 29326 ft 482 kts 248°
2026-04-26 07:26 59.55286 21.94466 29625 ft 482 kts 248°
2026-04-26 07:26 59.53646 21.88701 29933 ft 482 kts 248°
2026-04-26 07:26 59.52001 21.82933 30201 ft 481 kts 248°
2026-04-26 07:26 59.50357 21.77180 30462 ft 481 kts 248°
2026-04-26 07:27 59.48712 21.71438 30698 ft 481 kts 248°
2026-04-26 07:27 59.47065 21.65699 30939 ft 481 kts 248°
2026-04-26 07:27 59.45418 21.59977 31209 ft 481 kts 248°
2026-04-26 07:27 59.43768 21.54260 31427 ft 481 kts 248°
2026-04-26 07:28 59.42115 21.48547 31668 ft 481 kts 248°
2026-04-26 07:28 59.40478 21.42898 31898 ft 481 kts 248°
2026-04-26 07:28 59.38819 21.37188 32134 ft 481 kts 248°
2026-04-26 07:28 59.37163 21.31493 32357 ft 481 kts 248°
2026-04-26 07:29 59.35501 21.25793 32574 ft 481 kts 248°
2026-04-26 07:29 59.33840 21.20113 32800 ft 481 kts 248°
2026-04-26 07:29 59.32176 21.14426 33020 ft 481 kts 248°
2026-04-26 07:29 59.30510 21.08741 33263 ft 480 kts 248°
2026-04-26 07:30 59.28842 21.03072 33470 ft 480 kts 248°
2026-04-26 07:30 59.27736 20.99321 33608 ft 480 kts 248°
2026-04-26 07:30 59.26069 20.93674 33812 ft 480 kts 248°
2026-04-26 07:31 59.22162 20.80504 33886 ft 482 kts 248°
2026-04-26 07:31 59.19335 20.71039 33889 ft 480 kts 248°
2026-04-26 07:32 59.15901 20.59876 33896 ft 480 kts 246°
2026-04-26 07:32 59.12347 20.48964 33908 ft 479 kts 246°
2026-04-26 07:33 59.08755 20.38046 33917 ft 478 kts 246°
2026-04-26 07:33 59.05177 20.27147 33920 ft 478 kts 246°
2026-04-26 07:34 59.01598 20.16252 33931 ft 478 kts 246°
2026-04-26 07:34 58.98012 20.05369 33934 ft 479 kts 246°
2026-04-26 07:35 58.94406 19.94482 33943 ft 480 kts 246°
2026-04-26 07:35 58.90778 19.83582 33947 ft 481 kts 246°
2026-04-26 07:36 58.87160 19.72767 33955 ft 482 kts 246°
2026-04-26 07:36 58.83503 19.61885 33960 ft 483 kts 246°
2026-04-26 07:37 58.79836 19.51022 33968 ft 483 kts 246°
2026-04-26 07:37 58.76152 19.40160 33980 ft 483 kts 246°
2026-04-26 07:38 58.72465 19.29338 33975 ft 483 kts 247°
2026-04-26 07:38 58.68776 19.18563 33975 ft 481 kts 247°
2026-04-26 07:39 58.65089 19.07841 33977 ft 480 kts 247°
2026-04-26 07:39 58.61410 18.97188 33981 ft 478 kts 247°
2026-04-26 07:40 58.57760 18.86665 33990 ft 476 kts 247°
2026-04-26 07:40 58.54088 18.76126 33996 ft 474 kts 247°
2026-04-26 07:41 58.50416 18.65635 34000 ft 473 kts 247°
2026-04-26 07:41 58.46753 18.55211 34014 ft 472 kts 247°
2026-04-26 07:42 58.43085 18.44819 34010 ft 471 kts 247°
2026-04-26 07:42 58.39439 18.34553 34011 ft 464 kts 247°
2026-04-26 07:43 58.35833 18.24435 34016 ft 459 kts 248°
2026-04-26 07:43 58.32266 18.14447 34028 ft 460 kts 248°
2026-04-26 07:44 58.28632 18.04295 34041 ft 467 kts 247°
2026-04-26 07:44 58.24950 17.94080 34036 ft 469 kts 247°
2026-04-26 07:45 58.21242 17.83856 34040 ft 470 kts 247°
2026-04-26 07:45 58.17545 17.73705 34044 ft 470 kts 247°
2026-04-26 07:46 58.13830 17.63542 34045 ft 468 kts 247°
2026-04-26 07:46 58.10118 17.53431 34046 ft 467 kts 247°
2026-04-26 07:47 58.06418 17.43391 34056 ft 465 kts 247°
2026-04-26 07:47 58.02724 17.33406 34061 ft 463 kts 247°
2026-04-26 07:48 57.99041 17.23492 34064 ft 461 kts 247°
2026-04-26 07:48 57.95361 17.13629 34074 ft 459 kts 247°
2026-04-26 07:49 57.91692 17.03833 34076 ft 457 kts 247°
2026-04-26 07:49 57.88016 16.94061 34080 ft 456 kts 247°
2026-04-26 07:50 57.82527 16.79563 34088 ft 456 kts 247°
2026-04-26 07:50 57.78834 16.69897 34093 ft 456 kts 246°
2026-04-26 07:51 57.75127 16.60246 34101 ft 456 kts 246°
2026-04-26 07:51 57.71435 16.50672 34101 ft 456 kts 246°
2026-04-26 07:52 57.67719 16.41073 34109 ft 456 kts 246°
2026-04-26 07:52 57.63988 16.31472 34108 ft 456 kts 246°
2026-04-26 07:53 57.60255 16.21908 34118 ft 456 kts 246°
2026-04-26 07:53 57.56512 16.12356 34122 ft 455 kts 246°
2026-04-26 07:54 57.52793 16.02901 34126 ft 454 kts 246°
2026-04-26 07:54 57.49056 15.93438 34130 ft 453 kts 246°
2026-04-26 07:55 57.45318 15.84010 34128 ft 453 kts 246°
2026-04-26 07:55 57.41579 15.74614 34139 ft 451 kts 246°
2026-04-26 07:56 57.37843 15.65266 34143 ft 450 kts 246°
2026-04-26 07:56 57.34133 15.56015 34151 ft 449 kts 246°
2026-04-26 07:57 57.30399 15.46740 34151 ft 449 kts 246°
2026-04-26 07:57 57.26664 15.37498 34151 ft 449 kts 246°
2026-04-26 07:58 57.22924 15.28278 34164 ft 448 kts 246°
2026-04-26 07:58 57.19179 15.19084 34167 ft 448 kts 246°
2026-04-26 07:59 57.15425 15.09901 34170 ft 448 kts 246°
2026-04-26 07:59 57.11665 15.00740 34177 ft 447 kts 246°
2026-04-26 08:00 57.07907 14.91620 34174 ft 447 kts 246°
2026-04-26 08:00 57.04148 14.82530 34176 ft 447 kts 246°
2026-04-26 08:01 57.00402 14.73507 34174 ft 447 kts 246°
2026-04-26 08:01 56.96630 14.64454 34183 ft 447 kts 245°
2026-04-26 08:02 56.92849 14.55413 34180 ft 447 kts 245°
2026-04-26 08:02 56.89061 14.46391 34182 ft 447 kts 245°
2026-04-26 08:03 56.85270 14.37393 34198 ft 446 kts 245°
2026-04-26 08:03 56.81473 14.28417 34195 ft 446 kts 245°
2026-04-26 08:04 56.77667 14.19455 34206 ft 446 kts 244°
2026-04-26 08:04 56.73892 14.10594 34220 ft 445 kts 244°
2026-04-26 08:05 56.70088 14.01700 34219 ft 444 kts 244°
2026-04-26 08:05 56.66286 13.92842 34227 ft 443 kts 244°
2026-04-26 08:06 56.62484 13.84018 34224 ft 443 kts 244°
2026-04-26 08:06 56.58680 13.75222 34237 ft 442 kts 243°
2026-04-26 08:07 56.54873 13.66448 34241 ft 442 kts 243°
2026-04-26 08:07 56.51087 13.57756 34241 ft 441 kts 243°
2026-04-26 08:08 56.47280 13.49046 34238 ft 441 kts 243°
2026-04-26 08:08 56.43465 13.40351 34237 ft 440 kts 243°
2026-04-26 08:09 56.39654 13.31695 34248 ft 440 kts 243°
2026-04-26 08:09 56.35836 13.23053 34257 ft 440 kts 242°
2026-04-26 08:10 56.32038 13.14488 34259 ft 440 kts 242°
2026-04-26 08:10 56.28204 13.05872 34259 ft 440 kts 242°
2026-04-26 08:11 56.24397 12.97347 34260 ft 439 kts 242°
2026-04-26 08:11 56.20564 12.88796 34259 ft 439 kts 242°
2026-04-26 08:12 56.16718 12.80243 34262 ft 439 kts 242°
2026-04-26 08:12 56.12871 12.71722 34263 ft 439 kts 241°
2026-04-26 08:13 56.09016 12.63211 34266 ft 439 kts 241°
2026-04-26 08:13 56.05185 12.54783 34270 ft 439 kts 241°
2026-04-26 08:14 56.01324 12.46319 34273 ft 439 kts 240°
2026-04-26 08:14 55.97462 12.37882 34282 ft 439 kts 240°
2026-04-26 08:15 55.93586 12.29443 34277 ft 439 kts 240°
2026-04-26 08:15 55.89735 12.21089 34280 ft 438 kts 240°
2026-04-26 08:16 55.85849 12.12690 34276 ft 438 kts 240°
2026-04-26 08:16 55.81989 12.04374 34280 ft 437 kts 239°
2026-04-26 08:17 55.78106 11.96035 34284 ft 437 kts 239°
2026-04-26 08:17 55.74229 11.87740 34287 ft 436 kts 239°
2026-04-26 08:18 55.70351 11.79470 34286 ft 436 kts 239°
2026-04-26 08:18 55.66469 11.71220 34293 ft 435 kts 239°
2026-04-26 08:19 55.63242 11.64384 34298 ft 435 kts 239°
2026-04-26 08:19 55.58713 11.54820 34294 ft 435 kts 238°
2026-04-26 08:20 55.55447 11.47949 34306 ft 435 kts 238°
2026-04-26 08:20 55.51561 11.39797 34298 ft 435 kts 238°
2026-04-26 08:21 55.47653 11.31627 34297 ft 435 kts 238°
2026-04-26 08:21 55.43748 11.23491 34300 ft 435 kts 237°
2026-04-26 08:22 55.39828 11.15350 34302 ft 435 kts 237°
2026-04-26 08:22 55.35932 11.07287 34310 ft 435 kts 237°
2026-04-26 08:23 55.32004 10.99186 34310 ft 435 kts 237°
2026-04-26 08:23 55.28072 10.91101 34316 ft 435 kts 237°
2026-04-26 08:24 55.24138 10.83040 34311 ft 435 kts 237°
2026-04-26 08:24 55.20201 10.75001 34315 ft 435 kts 236°
2026-04-26 08:25 55.16275 10.67010 34308 ft 435 kts 236°
2026-04-26 08:25 55.12317 10.58980 34317 ft 436 kts 236°
2026-04-26 08:26 55.08353 10.50965 34319 ft 436 kts 236°
2026-04-26 08:26 55.04375 10.42951 34319 ft 436 kts 235°
2026-04-26 08:27 55.00393 10.34954 34320 ft 436 kts 235°
2026-04-26 08:27 54.96412 10.26986 34318 ft 436 kts 235°
2026-04-26 08:28 54.92421 10.19023 34319 ft 436 kts 235°
2026-04-26 08:28 54.88428 10.11086 34319 ft 436 kts 234°
2026-04-26 08:29 54.84448 10.03198 34322 ft 436 kts 234°
2026-04-26 08:29 54.80411 9.95325 34313 ft 439 kts 230°
2026-04-26 08:30 54.75893 9.88151 34315 ft 442 kts 227°
2026-04-26 08:30 54.71265 9.81136 34322 ft 442 kts 227°
2026-04-26 08:31 54.66642 9.74108 34309 ft 442 kts 227°
2026-04-26 08:31 54.62061 9.67100 34321 ft 442 kts 227°
2026-04-26 08:32 54.57448 9.60041 34316 ft 443 kts 227°
2026-04-26 08:32 54.52832 9.52994 34315 ft 443 kts 226°
2026-04-26 08:33 54.48212 9.45963 34321 ft 443 kts 226°
2026-04-26 08:33 54.43600 9.38969 34322 ft 443 kts 226°
2026-04-26 08:34 54.38973 9.31974 34316 ft 442 kts 226°
2026-04-26 08:34 54.34376 9.25047 34320 ft 442 kts 226°
2026-04-26 08:35 54.29748 9.18094 34317 ft 442 kts 226°
2026-04-26 08:35 54.25121 9.11164 34320 ft 442 kts 225°
2026-04-26 08:36 54.20479 9.04233 34318 ft 442 kts 225°
2026-04-26 08:36 54.15851 8.97344 34320 ft 442 kts 225°
2026-04-26 08:37 54.11201 8.90445 34320 ft 441 kts 225°
2026-04-26 08:37 54.06592 8.83627 34323 ft 441 kts 225°
2026-04-26 08:38 54.01946 8.76775 34322 ft 441 kts 225°
2026-04-26 08:38 53.97303 8.69948 34323 ft 441 kts 225°
2026-04-26 08:39 53.92648 8.63126 34321 ft 441 kts 224°
2026-04-26 08:39 53.87997 8.56330 34321 ft 441 kts 224°
2026-04-26 08:40 53.83345 8.49553 34321 ft 441 kts 224°
2026-04-26 08:40 53.78687 8.42787 34320 ft 441 kts 224°
2026-04-26 08:41 53.74024 8.36036 34325 ft 441 kts 224°
2026-04-26 08:41 53.69389 8.29345 34328 ft 441 kts 224°
2026-04-26 08:42 53.64714 8.22616 34331 ft 441 kts 224°
2026-04-26 08:42 53.60034 8.15901 34336 ft 441 kts 223°
2026-04-26 08:43 53.55350 8.09201 34341 ft 441 kts 223°
2026-04-26 08:43 53.50666 8.02521 34343 ft 441 kts 223°
2026-04-26 08:44 53.46008 7.95897 34349 ft 441 kts 223°
2026-04-26 08:44 53.41316 7.89245 34347 ft 441 kts 223°
2026-04-26 08:45 53.36622 7.82610 34342 ft 442 kts 223°
2026-04-26 08:45 53.31915 7.75977 34354 ft 442 kts 223°
2026-04-26 08:46 53.27225 7.69388 34355 ft 442 kts 223°
2026-04-26 08:46 53.22506 7.62779 34347 ft 442 kts 222°
2026-04-26 08:47 53.18575 7.57288 34354 ft 443 kts 222°